www.pogodaiklimat.ru

Погода и климат >> Архив погоды >> Норвегия >> Она


ПОГОДА в Она

  • Прогноз погоды в Она
  • Монитор погоды в Она

АРХИВ ПОГОДЫ в Она

Время (UTC), дата Ветер
(напр.,м/с)
 
Видим.   Явления Облачность Т
(С)
Тd
(С)
f
(%)
Тe
(С)
Тes
(С)
Комфортность P
(гПа)
Po
(гПа)
Тmin
(С)
Tmax
(С)
R
(мм)
R24
(мм)
S
(см)
07 16.02 ЮЗ 6
{10}
н/о н/о +3.2 +1.7 90 -3 -3 1007.4 1005.6
08 16.02 Ю 7
{9}
н/о н/о +3.4 +2.1 91 -3 -3 1007.6 1005.8
09 16.02 ЮЗ 6
{8}
н/о н/о +3.4 +1.8 89 -2 -2 1008.3 1006.5
10 16.02 ЮЗ 5
{7}
н/о н/о +3.9 +2.1 88 -1 -1 1009.2 1007.4
11 16.02 ЮЗ 5
{7}
н/о н/о +4.3 +1.9 84 -1 -1 1009.8 1008.0
12 16.02 З 5
{10}
н/о н/о +4.9 +2.3 83 0 0 1010.9 1009.1
13 16.02 СЗ 5
{9}
н/о н/о +5.3 -0.9 64 +1 +1 1012.0 1010.2
14 16.02 З 5
{6}
н/о н/о +5.8 -1.6 59 +2 +2 1012.9 1011.1
15 16.02 СЗ 6
{10}
н/о н/о +4.9 -2.2 60 0 0 1013.2 1011.4
16 16.02 С 6
{8}
н/о н/о +4.5 -1.5 65 -0 -0 1013.9 1012.1
17 16.02 С 4
{7}
н/о н/о +4.5 -2.3 61 +1 +1 1014.2 1012.4
18 16.02 С 3
{10}
н/о н/о +4.4 -2.9 59 +1 +1 1014.6 1012.8 +3.0 +5.8
19 16.02 С 4
{6}
н/о н/о +4.0 -2.0 65 -0 -0 1014.7 1012.9
20 16.02 С 3
{4}
н/о н/о +4.2 -2.4 62 +1 +1 1014.6 1012.8
21 16.02 В 2
{5}
н/о н/о +4.1 -2.7 61 +2 +2 1015.2 1013.4
22 16.02 ЮВ 4
{4}
н/о н/о +3.9 +0.4 78 -0 -0 1015.5 1013.7
23 16.02 ЮВ 3
{4}
н/о н/о +3.3 +0.2 80 -1 -1 1015.7 1013.9
00 17.02 В 4
{6}
н/о н/о +3.3 +0.5 82 -1 -1 1015.4 1013.6
01 17.02 В 5
{6}
н/о н/о +2.9 +0.1 82 -2 -2 1015.5 1013.7
02 17.02 В 5
{6}
н/о н/о +2.7 -0.2 81 -3 -3 1015.2 1013.4
03 17.02 В 5
{7}
н/о н/о +2.6 0.0 83 -3 -3 1015.0 1013.2
04 17.02 ЮВ 6
{8}
н/о н/о +2.7 -0.2 81 -3 -3 1014.2 1012.4
05 17.02 В 7
{10}
н/о н/о +3.0 -1.0 75 -3 -3 1013.3 1011.5
06 17.02 В 8
{10}
н/о н/о +3.3 -1.2 72 -3 -3 1012.7 1010.9 +2.5 +4.4
07 17.02 ЮВ 4
{10}
н/о н/о +3.6 -1.7 68 -1 -1 1012.8 1011.0
08 17.02 В 8
{9}
н/о н/о +3.4 -1.7 69 -3 -3 1012.3 1010.5
09 17.02 ЮВ 3
{10}
н/о н/о +4.0 -2.2 64 +1 +1 1012.1 1010.3
10 17.02 ЮВ 4
{5}
н/о н/о +3.7 -1.2 70 -1 -1 1011.8 1010.0
11 17.02 В 9
{11}
н/о н/о +3.5 -1.0 72 -3 -3 1011.4 1009.6
12 17.02 В 9
{12}
н/о н/о +4.2 -1.2 68 -2 -2 1010.1 1008.3
13 17.02 В 11
{13}
н/о н/о +4.8 -0.6 68 -2 -2 1008.6 1006.8
14 17.02 ЮВ 9
{12}
н/о н/о +5.6 +0.4 69 -0 -0 1007.5 1005.7
15 17.02 ЮВ 5
{10}
н/о н/о +5.9 +0.9 70 +2 +2 1007.0 1005.2
16 17.02 ЮВ 5
{7}
н/о н/о +6.5 +1.2 69 +3 +3 1006.0 1004.2
17 17.02 ЮВ 5
{8}
н/о н/о +6.1 +2.2 76 +2 +2 1005.1 1003.3
18 17.02 ЮВ 5
{13}
н/о н/о +6.6 +1.9 72 +3 +3 1004.3 1002.5 +3.0 +7.1
19 17.02 ЮВ 5
{6}
н/о н/о +6.7 +2.0 72 +3 +3 1003.9 1002.1
20 17.02 ЮВ 4
{6}
н/о н/о +6.9 +2.6 74 +3 +3 1003.3 1001.5
21 17.02 Ю 4
{5}
н/о н/о +7.7 +2.4 69 +5 +5 1002.6 1000.8
22 17.02 ЮВ 4
{7}
н/о н/о +8.9 +1.8 61 +6 +6 1002.3 1000.5
23 17.02 ЮЗ 11
{12}
н/о н/о +10.1 +2.7 60 +6 +6 1001.5 999.8
00 18.02 ЮЗ 10
{15}
н/о н/о +10.1 +2.5 59 +6 +6 1001.6 999.9
01 18.02 ЮЗ 15
{19}
н/о н/о +7.7 +4.5 80 +1 +1 1001.7 999.9
02 18.02 ЮЗ 13
{16}
н/о н/о +8.0 +4.2 77 +2 +2 1001.9 1000.1
03 18.02 ЮЗ 9
{14}
н/о н/о +7.9 +3.8 75 +3 +3 1002.0 1000.2
04 18.02 ЮЗ 11
{13}
н/о н/о +8.6 +2.6 66 +4 +4 1001.1 999.3
05 18.02 ЮЗ 11
{12}
н/о н/о +7.9 +2.8 70 +3 +3 1000.4 998.6
06 18.02 ЮЗ 9
{19}
н/о н/о +7.8 +2.5 69 +3 +3 1000.2 998.4 +6.2 +11.6
07 18.02 ЮЗ 9
{12}
н/о н/о +8.4 +1.1 60 +4 +4 999.6 997.8
08 18.02 ЮЗ 9
{12}
н/о н/о +8.7 +0.4 56 +4 +4 999.3 997.6
09 18.02 ЮЗ 9
{11}
н/о н/о +8.4 +1.3 61 +4 +4 999.0 997.3
10 18.02 ЮЗ 11
{14}
н/о н/о +9.3 +0.8 55 +5 +5 998.2 996.5
11 18.02 ЮЗ 13
{16}
н/о н/о +8.5 +1.7 62 +3 +3 997.8 996.1
12 18.02 ЮЗ 12
{16}
н/о н/о +8.6 +1.8 62 +3 +3 997.5 995.8
13 18.02 ЮЗ 12
{16}
н/о н/о +8.2 +2.0 65 +3 +3 996.8 995.1
14 18.02 ЮЗ 12
{18}
н/о н/о +8.1 +1.9 65 +3 +3 996.2 994.5
15 18.02 ЮЗ 12
{16}
н/о н/о +8.0 +1.6 64 +3 +3 995.7 994.0
16 18.02 ЮЗ 11
{14}
н/о н/о +7.7 +2.2 68 +2 +2 995.2 993.5
17 18.02 ЮЗ 9
{14}
н/о н/о +7.4 +2.5 71 +2 +2 994.9 993.2
18 18.02 З 9
{18}
н/о н/о +6.9 +3.0 76 +2 +2 994.4 992.6 +6.9 +9.4
19 18.02 ЮЗ 11
{16}
н/о н/о +6.8 +3.3 78 +1 +1 994.1 992.3
20 18.02 ЮЗ 8
{12}
н/о н/о +7.0 +2.9 75 +2 +2 994.0 992.3
21 18.02 ЮЗ 8
{13}
н/о н/о +6.9 +2.4 73 +2 +2 993.4 991.7
22 18.02 ЮЗ 7
{12}
н/о н/о +7.4 +0.6 62 +3 +3 992.8 991.1
23 18.02 З 6
{12}
н/о н/о +6.5 +2.4 75 +2 +2 992.4 990.7
00 19.02 ЮЗ 9
{16}
н/о н/о +7.4 +0.4 61 +3 +3 991.6 989.9
01 19.02 ЮЗ 6
{10}
н/о н/о +7.0 +0.7 64 +3 +3 991.1 989.4
02 19.02 Ю 5
{7}
н/о н/о +7.1 -0.1 60 +3 +3 990.2 988.5
03 19.02 ЮЗ 6
{7}
н/о н/о +6.9 -0.3 60 +3 +3 989.7 988.0
04 19.02 ЮЗ 7
{8}
н/о н/о +6.9 +0.6 64 +2 +2 989.2 987.5
05 19.02 ЮЗ 5
{7}
н/о н/о +6.6 +0.9 67 +3 +3 988.7 987.0
06 19.02 ЮЗ 3
{10}
н/о н/о +6.2 +1.0 69 +3 +3 988.4 986.7 +6.1 +7.7
07 19.02 ЮЗ 4
{5}
н/о н/о +6.3 +2.4 76 +3 +3 988.6 986.9
08 19.02 ЮЗ 10
{12}
н/о н/о +6.2 +3.0 80 0 0 989.2 987.5
09 19.02 ЮЗ 12
{16}
н/о н/о +5.4 +3.4 87 -1 -1 990.0 988.2
10 19.02 З 11
{18}
н/о н/о +5.5 +2.2 79 -1 -1 991.1 989.3
11 19.02 З 13
{16}
н/о н/о +5.4 +0.8 72 -1 -1 991.8 990.0
12 19.02 ЮЗ 13
{18}
н/о н/о +5.3 +1.8 78 -2 -2 992.5 990.7
13 19.02 ЮЗ 15
{18}
н/о н/о +5.0 +2.4 83 -3 -3 992.9 991.1
14 19.02 ЮЗ 16
{19}
н/о н/о +5.1 +3.1 87 -3 -3 993.8 992.0
15 19.02 С 13
{20}
н/о н/о +5.6 +3.6 87 -1 -1 996.2 994.4
16 19.02 С 13
{19}
н/о н/о +5.6 +2.1 78 -1 -1 998.6 996.8
17 19.02 С 11
{16}
н/о н/о +5.3 +1.8 78 -1 -1 1000.3 998.5
18 19.02 С 10
{20}
н/о н/о +5.0 +1.3 77 -1 -1 1002.2 1000.4 +4.3 +6.4
19 19.02 С 10
{13}
н/о н/о +5.1 +0.3 71 -1 -1 1003.4 1001.6
20 19.02 С 5
{13}
н/о н/о +4.8 -0.2 70 0 0 1004.6 1002.8
21 19.02 С 8
{9}
н/о н/о +5.0 -1.6 62 -0 -0 1005.3 1003.5
22 19.02 С 5
{8}
н/о н/о +4.4 0.0 73 -0 -0 1006.0 1004.2
23 19.02 С 7
{10}
н/о н/о +3.4 -0.6 75 -2 -2 1006.7 1004.9
00 20.02
{13}
н/о н/о +2.8 -0.3 80 1007.6 1005.8
01 20.02 З 3
{4}
н/о н/о +4.1 -0.7 71 +1 +1 1008.1 1006.3
02 20.02 З 2
{6}
н/о н/о +4.1 +0.1 75 +2 +2 1008.3 1006.5
03 20.02 ЮЗ 3
{4}
н/о н/о +4.0 +0.7 79 0 0 1008.5 1006.7
04 20.02 С 2
{7}
н/о н/о +3.4 +0.3 80 +1 +1 1008.6 1006.8
05 20.02 штиль 0
{3}
н/о н/о +3.5 -0.9 73 +3 +3 1009.3 1007.5
06 20.02 штиль 0
{7}
н/о н/о +3.5 -1.1 72 +3 +3 1009.4 1007.6 +2.6 +5.2
07 20.02 ЮЗ 2
{4}
н/о н/о +3.6 +0.1 78 +1 +1 1009.8 1008.0
08 20.02 ЮЗ 2
{3}
н/о н/о +3.7 +0.1 77 +1 +1 1010.3 1008.5
09 20.02 Ю 2
{3}
н/о н/о +4.1 -0.7 71 +2 +2 1010.4 1008.6
10 20.02 Ю 2
{3}
н/о н/о +4.3 -0.7 70 +2 +2 1010.9 1009.1
11 20.02 Ю 4
{4}
н/о н/о +4.4 -0.4 71 0 0 1010.9 1009.1
12 20.02 Ю 3
{5}
н/о н/о +4.6 -0.6 69 +1 +1 1011.1 1009.3
13 20.02 ЮВ 3
{4}
н/о н/о +4.7 -0.3 70 +1 +1 1011.0 1009.2
14 20.02 ЮВ 3
{4}
н/о н/о +4.7 -0.7 68 +1 +1 1010.4 1008.6
15 20.02 ЮВ 4
{5}
н/о н/о +4.6 -2.5 60 +1 +1 1010.0 1008.2
16 20.02 ЮВ 4
{5}
н/о н/о +4.2 -1.6 66 0 0 1009.8 1008.0
17 20.02 В 6
{7}
н/о н/о +4.1 -0.5 72 -1 -1 1009.0 1007.2
18 20.02 В 6
{8}
н/о н/о +3.9 -0.7 72 -1 -1 1008.4 1006.6 +2.7 +4.8
19 20.02 ЮВ 7
{9}
н/о н/о +4.2 -1.2 68 -1 -1 1007.7 1005.9
20 20.02 ЮВ 7
{9}
н/о н/о +4.0 -1.7 66 -2 -2 1007.1 1005.3
21 20.02 В 9
{11}
н/о н/о +2.8 -0.1 81 -4 -4 1006.2 1004.4
22 20.02 В 10
{13}
н/о н/о +2.7 +0.8 87 -5 -5 1005.9 1004.1
23 20.02 ЮВ 7
{12}
н/о н/о +2.9 +1.3 89 -3 -3 1005.8 1004.0
00 21.02 ЮВ 8
{13}
н/о н/о +3.2 +1.7 90 -3 -3 1005.3 1003.5
01 21.02 В 6
{10}
н/о н/о +3.9 +1.9 87 -2 -2 1005.3 1003.5
02 21.02 ЮВ 5
{8}
н/о н/о +4.3 +2.3 87 -1 -1 1005.6 1003.8
03 21.02 ЮВ 3
{8}
н/о н/о +4.7 +2.7 87 +1 +1 1005.8 1004.0
04 21.02 ЮВ 4
{5}
н/о н/о +5.1 +3.1 87 +1 +1 1006.2 1004.4
05 21.02 Ю 3
{5}
н/о н/о +6.0 +3.5 84 +3 +3 1006.7 1004.9
06 21.02 Ю 6
{10}
н/о н/о +6.3 +3.5 82 +2 +2 1007.2 1005.4 +2.4 +6.3
07 21.02 Ю 7
{8}
н/о н/о +6.3 +4.0 85 +1 +1 1008.0 1006.2
08 21.02 Ю 7
{8}
н/о н/о +6.5 +3.8 83 +2 +2 1008.8 1007.0
09 21.02 Ю 7
{8}
н/о н/о +6.1 +4.3 88 +1 +1 1010.0 1008.2
10 21.02 Ю 7
{8}
н/о н/о +5.7 +4.7 93 0 0 1011.3 1009.5
11 21.02 ЮЗ 9
{11}
н/о н/о +6.6 +5.7 94 +1 +1 1012.4 1010.6
12 21.02 ЮЗ 10
{13}
н/о н/о +6.5 +5.6 94 0 0 1013.3 1011.5
13 21.02 ЮЗ 10
{12}
н/о н/о +6.4 +5.5 94 0 0 1014.4 1012.6
14 21.02 ЮЗ 10
{12}
н/о н/о +6.3 +5.4 94 0 0 1015.5 1013.7
15 21.02 ЮЗ 10
{12}
н/о н/о +6.4 +5.5 94 0 0 1016.5 1014.7
16 21.02 ЮЗ 10
{12}
н/о н/о +6.4 +5.4 93 0 0 1017.7 1015.9
17 21.02 ЮЗ 9
{12}
н/о н/о +6.6 +5.2 91 +1 +1 1018.8 1017.0
18 21.02 Ю 7
{12}
н/о н/о +7.0 +4.7 85 +2 +2 1019.7 1017.9 +5.7 +7.0
19 21.02 Ю 6
{9}
н/о н/о +6.7 +4.9 88 +2 +2 1020.5 1018.7
20 21.02 Ю 5
{7}
н/о н/о +6.6 +4.4 86 +2 +2 1021.4 1019.6
21 21.02 Ю 5
{7}
н/о н/о +6.4 +4.4 87 +2 +2 1021.5 1019.7
22 21.02 Ю 7
{8}
н/о н/о +7.0 +4.0 81 +2 +2 1022.0 1020.2
23 21.02 Ю 7
{9}
н/о н/о +6.6 +4.3 85 +2 +2 1022.5 1020.7
00 22.02 Ю 8
{9}
н/о н/о +6.7 +3.9 82 +2 +2 1023.3 1021.5
01 22.02 Ю 9
{11}
н/о н/о +6.7 +4.5 86 +1 +1 1024.0 1022.2
02 22.02 Ю 9
{10}
н/о н/о +6.7 +4.9 88 +1 +1 1024.3 1022.5
03 22.02 Ю 7
{10}
н/о н/о +6.8 +5.4 91 +2 +2 1024.9 1023.1
04 22.02 ЮЗ 8
{9}
н/о н/о +7.7 +6.5 92 +3 +3 1025.2 1023.4
05 22.02 ЮЗ 8
{9}
н/о н/о +7.7 +6.5 92 +3 +3 1025.3 1023.5
06 22.02 Ю 7
{11}
н/о н/о +8.2 +6.3 88 +4 +4 1025.8 1024.0 +6.4 +8.3
07 22.02 Ю 7
{8}
н/о н/о +7.8 +5.4 85 +3 +3 1026.0 1024.2
08 22.02 Ю 8
{9}
н/о н/о +8.1 +5.1 81 +3 +3 1025.8 1024.0
09 22.02 Ю 6
{9}
н/о н/о +8.7 +5.1 78 +5 +5 1025.8 1024.0
10 22.02 Ю 8
{10}
н/о н/о +9.2 +4.8 74 +5 +5 1025.6 1023.8
11 22.02 Ю 6
{10}
н/о н/о +8.8 +5.0 77 +5 +5 1025.5 1023.7
12 22.02 ЮЗ 7
{10}
н/о н/о +9.9 +4.7 70 +6 +6 1025.5 1023.7
13 22.02 З 7
{15}
н/о н/о +8.8 +4.2 73 +5 +5 1026.5 1024.7
14 22.02 З 15
{17}
н/о н/о +7.9 +4.5 79 +2 +2 1025.5 1023.7
15 22.02 ЮЗ 15
{18}
н/о н/о +8.9 +3.9 71 +3 +3 1025.8 1024.0
16 22.02 ЮЗ 14
{19}
н/о н/о +8.6 +4.1 73 +3 +3 1026.8 1025.0
17 22.02 ЮЗ 16
{20}
н/о н/о +8.6 +4.4 75 +3 +3 1027.4 1025.6
18 22.02 ЮЗ 14
{20}
н/о н/о +8.6 +4.6 76 +3 +3 1028.4 1026.6 +7.7 +10.1
19 22.02 ЮЗ 15
{17}
н/о н/о +8.4 +4.8 78 +2 +2 1028.6 1026.8
20 22.02 ЮЗ 11
{16}
н/о н/о +8.4 +4.8 78 +3 +3 1028.9 1027.1
21 22.02 ЮЗ 13
{14}
н/о н/о +8.0 +4.8 80 +2 +2 1029.1 1027.3
22 22.02 ЮЗ 13
{17}
н/о н/о +7.9 +4.9 81 +2 +2 1028.7 1026.9
23 22.02 ЮЗ 11
{15}
н/о н/о +7.6 +4.9 83 +2 +2 1029.5 1027.7
00 23.02 ЮЗ 11
{17}
н/о н/о +7.4 +5.1 85 +2 +2 1028.8 1027.0
01 23.02 ЮЗ 11
{13}
н/о н/о +7.6 +5.1 84 +2 +2 1028.4 1026.6
02 23.02 ЮЗ 8
{13}
н/о н/о +7.6 +4.7 82 +3 +3 1028.5 1026.7
03 23.02 ЮЗ 10
{11}
н/о н/о +9.7 +4.9 72 +5 +5 1027.9 1026.1
04 23.02 ЮЗ 11 н/о н/о +11.4 +3.9 60 +8 +8 1027.0 1025.2
05 23.02 ЮЗ 10
{14}
н/о н/о +11.4 +3.9 60 +8 +8 1025.8 1024.0
06 23.02 Ю 10
{14}
н/о н/о +11.5 +3.8 59 +8 +8 1025.6 1023.8 +7.3 +11.7

 

Местоположение метеостанции Она (Норвегия): широта 62.86 долгота 6.54 высота над уровнем моря 13 м.

В архиве по умолчанию представлена погода в Она за последнюю неделю. Архивные данные за месяц целиком и за предыдущие месяцы, начиная с января 2011 года, Вы можете получить, выбрав интересующий диапазон дат из раскрывающегося списка и нажав кнопку "Ввод!".


*Определитесь, кто Вы:
робот инопланетянин человек

Внимание! Время в таблицах - всемирное. Для получения местного времени необходимо прибавить поправку, которая равна 1 ч.

Смотрите также архив погоды в соседних городах и на ближайших метеорологических станциях:

Погода в Рекдале (Норвегия) (26 км)
Погода в Молдэ аэропорту (Норвегия) (39 км)
Погода в Олесунн аэропорту (Норвегия) (39 км)
Погода в Лебергсфелле (Норвегия) (41 км)
Погода в Олесунне (Норвегия) (47 км)
Погода в Кристиансунн аэропорту (Норвегия) (70 км)
Погода на Маннене (Норвегия) (77 км)
Погода в Аэропорту Орста-Волда (Норвегия) (79 км)
Погода в Марстейне (Норвегия) (81 км)
Погода в Тафьорде (Норвегия) (83 км)

Пояснения к столбцам:

Ветер - указаны скорость ветра в м/с - средняя за 10 мин, порывы в срок и между сроками (в фигурных скобках) и направление, откуда дует ветер: С - северный, СВ - северо-восточный, В - восточный, ЮВ - юго-восточный, Ю - южный, ЮЗ - юго-западный, З - западный, СЗ - северо-западный.
Видимость - горизонтальная дальность видимости в метрах или километрах. При видимости от 1 до 10 км при отсутствии осадков обычно наблюдается дымка, при ухудшении видимости до 1 км и менее - туман. В сухую погоду видимость может ухудшаться дымом, пылью или мглою.
Явления - указаны атмосферные явления, наблюдавшиеся в срок или в последний час перед сроком; фигурными скобками обозначены явления, наблюдавшиеся между сроками (за 1-3 часа до срока); квадратными скобками обозначены град или гололедные отложения с указанием их диаметра в мм.
Облачность - указаны через наклонную черту общая и нижняя облачность в баллах и высота нижней границы облаков в метрах; квадратными скобками обозначены формы облаков: Ci - перистые, Cs - перисто-слоистые, Cc - перисто-кучевые, Ac - высококучевые, As - высокослоистые, Sc - слоисто-кучевые, Ns - слоисто-дождевые, Cu - кучевые, Cb - кучево-дождевые. Подробнее классификацию облаков см. в Атласе облаков (PDF).
T - Температура воздуха - температура, измеренная на высоте 2 м над землей.
Td - Температура точки росы - температура, при понижении до которой содержащийся в воздухе водяной пар достигнет насыщения.
f - Относительная влажность воздуха - влажноcть воздуха, измеренная на высоте 2 м над землей.
Te - Эффективная температура - температура, которую ощущает одетый по сезону человек в тени. Характеристика душности погоды. При расчете учитывается влияние влажности воздуха и скорости ветра на теплоощущения человека.
Tes - Эффективная температура на солнце - температура, которую ощущает человек, с поправкой на солнечный нагрев. Характеристика знойности погоды. Зависит от высоты солнца над горизонтом, облачности и скорости ветра. Ночью, в пасмурную погоду, а также при ветре 12 м/с и более поправка равна нулю.
P - Атмосферное давление - приведенное к уровню моря атмосферное давление.
Po - Атмосферное давление - измеренное на уровне метеостанции атмосферное давление.
Tmin - Минимальная температура - минимум температуры воздуха на высоте 2 м над землей.
Tmax - Максимальная температура - максимум температуры воздуха на высоте 2 м над землей.
R - Количество осадков - Количество выпавших осадков за период времени, мм. При наведении курсора мыши на число - период времени, за который выпало указанное количество осадков.
R24 - Количество осадков - Количество выпавших осадков за 24 часа, мм.
S - Снежный покров - Высота снежного покрова, см. При наведении курсора мыши на число - состояние снежного покрова и степень покрытия местности в баллах.